CW8593 Weather Reports


Display with metric or nautical units.
time (UTC)temp
F
wind
direction
speed
MPH
gust
MPH
rain 1hr
in
rain 24hr
in
rain mn
in
humidity
%
barometer
mb
20150427040245 55 246 0.0 2.0 0.00 0.22 0.00 85 1001.6
20150427033245 55 248 0.0 3.0 0.00 0.22 0.00 85 1001.7
20150427032246 56 248 1.0 3.0 0.00 0.22 0.00 85 1001.7
20150427030246 56 234 1.0 3.0 0.00 0.22 0.00 87 1001.6
20150427025246 56 234 2.0 3.0 0.00 0.22 0.00 87 1001.6
20150427022244 56 232 0.0 0.0 0.00 0.22 0.00 89 1001.9
20150427014245 56 232 0.0 2.0 0.00 0.22 0.00 88 1001.9
20150427013245 56 232 0.0 1.0 0.00 0.22 0.00 87 1002.0
20150427012245 56 232 0.0 1.0 0.00 0.22 0.00 87 1002.1
20150427011245 56 232 0.0 3.0 0.00 0.22 0.00 87 1002.2
20150427003245 57 232 1.0 3.0 0.00 0.22 0.00 86 1002.4
20150427002245 57 232 2.0 3.0 0.00 0.22 0.00 86 1002.6
20150427001246 58 232 0.0 0.0 0.00 0.22 0.00 86 1002.6
20150427000246 58 232 0.0 2.0 0.00 0.22 0.00 86 1002.8
20150426235245 57 232 0.0 3.0 0.00 0.22 0.22 86 1002.9
20150426233245 58 232 0.0 3.0 0.00 0.22 0.22 87 1003.1
20150426232245 58 232 2.0 3.0 0.00 0.22 0.22 87 1003.0
20150426231246 58 232 2.0 8.0 0.00 0.22 0.22 87 1003.2
20150426222246 58 275 2.0 6.0 0.00 0.22 0.22 87 1002.7
20150426220245 59 281 4.0 6.0 0.00 0.22 0.22 86 1003.1
20150426215246 59 278 3.0 7.0 0.00 0.22 0.22 86 1003.1
20150426214245 60 305 2.0 6.0 0.00 0.22 0.22 86 1003.1
20150426213244 60 355 1.0 3.0 0.00 0.22 0.22 85 1003.1
20150426211246 61 24 2.0 5.0 0.01 0.22 0.22 85 1003.2
20150426210245 61 23 2.0 9.0 0.02 0.22 0.22 86 1003.1
20150426204245 60 16 2.0 6.0 0.08 0.22 0.22 89 1004.2
20150426203245 60 293 0.0 3.0 0.09 0.22 0.22 89 1004.4
20150426200245 63 198 1.0 3.0 0.20 0.20 0.20 91 1004.6
20150426195245 63 198 0.0 3.0 0.17 0.17 0.17 90 1004.6
20150426191246 63 196 0.0 3.0 0.06 0.06 0.06 89 1003.7
20150426190245 63 190 2.0 5.0 0.00 0.00 0.00 88 1003.7
20150426184244 63 190 1.0 3.0 0.00 0.00 0.00 88 1003.6
20150426183244 63 190 0.0 3.0 0.00 0.00 0.00 88 1003.7
20150426182245 63 190 1.0 3.0 0.00 0.00 0.00 88 1003.6
20150426181245 63 190 0.0 6.0 0.00 0.00 0.00 88 1003.5
20150426175244 63 155 2.0 8.0 0.00 0.00 0.00 88 1003.7
20150426174246 63 149 3.0 7.0 0.00 0.00 0.00 88 1003.6
20150426173245 63 134 3.0 8.0 0.00 0.00 0.00 87 1003.5
20150426172245 64 142 3.0 9.0 0.00 0.00 0.00 85 1003.5
20150426171246 64 173 5.0 8.0 0.00 0.00 0.00 83 1003.5
20150426170244 65 153 3.0 7.0 0.00 0.00 0.00 82 1003.5
20150426165245 65 102 2.0 6.0 0.00 0.00 0.00 82 1003.2
20150426163245 65 164 3.0 7.0 0.00 0.00 0.00 82 1003.6
20150426162245 65 142 3.0 7.0 0.00 0.00 0.00 80 1003.5
20150426161245 65 144 2.0 5.0 0.00 0.00 0.00 79 1003.5
20150426155244 66 177 1.0 5.0 0.00 0.00 0.00 77 1003.6
20150426153245 65 173 2.0 10.0 0.00 0.00 0.00 80 1004.2
20150426152246 65 141 7.0 12.0 0.00 0.00 0.00 80 1004.4
20150426151246 65 194 7.0 13.0 0.00 0.00 0.00 80 1004.4
20150426145246 64 217 1.0 10.0 0.00 0.00 0.00 83 1004.6
20150426144245 64 218 2.0 12.0 0.00 0.00 0.00 84 1004.6
20150426143245 64 221 3.0 9.0 0.00 0.00 0.00 84 1004.6
20150426140245 63 121 1.0 7.0 0.00 0.00 0.00 85 1005.1
20150426135244 63 161 4.0 8.0 0.00 0.00 0.00 85 1005.2
20150426134245 63 142 4.0 9.0 0.00 0.00 0.00 85 1005.5
20150426133244 64 139 4.0 9.0 0.00 0.00 0.00 85 1005.7
20150426132245 64 132 5.0 10.0 0.00 0.00 0.00 84 1005.7
20150426130245 65 119 6.0 9.0 0.00 0.00 0.00 83 1005.7
20150426125246 65 166 6.0 12.0 0.00 0.00 0.00 81 1005.7
20150426124244 66 124 3.0 12.0 0.00 0.00 0.00 81 1005.8
20150426123245 66 144 5.0 10.0 0.00 0.00 0.00 81 1005.8
20150426122245 65 128 2.0 9.0 0.00 0.00 0.00 81 1006.0
20150426121244 65 162 2.0 8.0 0.00 0.00 0.00 83 1006.3
20150426120245 65 142 5.0 8.0 0.00 0.00 0.00 83 1006.4
20150426114245 65 187 3.0 10.0 0.00 0.00 0.00 84 1006.8
20150426113244 65 175 5.0 12.0 0.00 0.00 0.00 84 1006.8
20150426112244 65 171 4.0 10.0 0.00 0.00 0.00 84 1007.1
20150426105245 65 146 5.0 9.0 0.00 0.00 0.00 83 1007.4
20150426104245 65 121 5.0 9.0 0.00 0.00 0.00 84 1007.5
20150426103245 65 179 2.0 7.0 0.00 0.00 0.00 84 1007.6
20150426101243 65 135 3.0 6.0 0.00 0.00 0.00 86 1007.8
20150426095247 64 161 4.0 10.0 0.00 0.00 0.00 85 1008.0
20150426094245 65 138 5.0 9.0 0.00 0.00 0.00 83 1008.0
20150426092245 64 127 1.0 3.0 0.00 0.00 0.00 85 1008.1
20150426091244 63 126 1.0 5.0 0.00 0.00 0.00 86 1008.1
20150426084244 63 134 5.0 6.0 0.00 0.00 0.00 85 1008.4
20150426075244 63 309 1.0 3.0 0.00 0.00 0.00 86 1008.6
20150426072244 63 296 0.0 1.0 0.00 0.00 0.00 89 1008.7
20150426071243 62 295 0.0 2.0 0.00 0.00 0.00 89 1008.7
20150426070244 62 296 0.0 1.0 0.00 0.00 0.00 90 1008.7
20150426065244 62 295 0.0 0.0 0.00 0.00 0.00 90 1008.8
20150426064243 62 295 0.0 0.0 0.00 0.00 0.00 91 1008.8
20150426063244 61 295 0.0 1.0 0.00 0.00 0.00 91 1008.9
20150426061244 61 295 0.0 1.0 0.00 0.00 0.00 91 1008.9
20150426060244 61 295 0.0 1.0 0.00 0.00 0.00 91 1008.9
20150426055244 61 295 0.0 1.0 0.00 0.00 0.00 91 1008.9
20150426054244 61 295 0.0 0.0 0.00 0.00 0.00 91 1008.7
20150426051243 60 295 0.0 0.0 0.00 0.00 0.00 91 1008.8
20150426044244 60 295 0.0 1.0 0.00 0.00 0.00 91 1008.7
20150426042244 60 295 2.0 3.0 0.00 0.00 0.00 91 1008.9
20150426041244 60 296 1.0 3.0 0.00 0.00 0.00 91 1008.7